2024-166A

Last updated on Fri Oct 18 2024 00:02:03 GMT+0000 (Coordinated Universal Time)

1 61179U 24166A 24291.56082687 .00066745 00000+0 32484-3 0 9994 2 61179 96.7638 186.4308 0016026 126.5377 233.7372 15.82025921 4782
UTC large
Height (km)
Speed (km/s)
/
Latitude / Longitude
Inclination (degrees)
Orbital Period (minutes)
Azimuth
Elevation
Range (km)
Doppler Factor

Next 0 passes for location: London (51.5072 / 0.1276)

Sorry there are no passes over London.